Location: Newark
(51.0500°N, 12.4500°E)
Time: 00:08:49
(UTC+00:00)

Vanguard 1 - Pass Details

Date: 21 February 2020
Orbit: 649 x 3834 km, 34.2° (Epoch: 01 April)

Event Time Altitude Azimuth Distance (km) Brightness Sun altitude
Rises 10:20:45 0° 255° (WSW) 7,393 14.5 26.8°
Reaches altitude 10° 10:26:51 10° 248° (WSW) 5,939 14.2 27.0°
Maximum altitude 10:40:50 35° 192° (SSW) 3,013 14.1 27.6°
Drops below altitude 10° 10:49:15 10° 131° (SE) 3,571 13.8 27.8°
Sets 10:51:55 0° 122° (ESE) 4,220 13.9 27.9°
